Regional Weather Roundup
Issued by NWS

Home | Current Version | Previous Version | Text Only | Print | Product List | Glossary Off
Versions: 1 2 3 4 5 6 7 8 9 10 11 12 13 14 15 16 17 18 19 20 21 22 23 24 25 26 27

000
ASUS45 KSLC 290110
RWRUT

UTAH REGIONAL WEATHER ROUNDUP
NATIONAL WEATHER SERVICE SALT LAKE CITY UT
700 PM MDT FRI APR 28 2017

UTZ001>011-023>025-290200-

NORTHERN UTAH

CITY           SKY/WX    TMP DP  RH WIND       PRES   REMARKS
BRIGHAM CITY   CLOUDY    44  34  66 N23G31    29.97R
HILL AFB       CLOUDY    41  32  70 N14       29.95R
LOGAN          CLOUDY    43  37  79 NE10      29.97R
OGDEN          CLOUDY    42  35  76 N14       29.95R
SALT LAKE CITY CLOUDY    46  35  65 N17       29.95R
TOOELE VALLEY  CLOUDY    41  36  81 NW13      29.98S
WENDOVER       CLOUDY    51  18  27 N16G22    30.00R
HEBER CITY     CLOUDY    43  21  42 NW12G18   29.88R
WEST JORDAN    CLOUDY    46  42  87 NW20      29.96S

$$

UTZ011>015-024>027-290200-

CENTRAL/NORTHEAST UTAH

CITY           SKY/WX    TMP DP  RH WIND       PRES   REMARKS
PROVO AIRPORT  CLOUDY    42  33  70 NW25G33   29.93F
MOAB/CANYONLAN PTSUNNY   51  19  28 NW20      29.76R
DELTA          CLOUDY    43  28  56 N21       29.95R
PRICE          PTSUNNY   41  21  44 NW17G25   29.84R
ROOSEVELT      CLOUDY    43  28  56 NW14      29.87R
VERNAL         CLOUDY    38  32  79 W7        29.85S WCI  33

$$

UTZ013>016-019>022-027-290200-

SOUTHERN UTAH

CITY           SKY/WX    TMP DP  RH WIND       PRES   REMARKS
BRYCE CANYON   PTSUNNY   35  13  40 N20G28    29.88R WCI  24
CEDAR CITY     PTSUNNY   47  17  30 N22G36    29.90R
MILFORD        LGT RAIN  42  24  49 N23G46    29.92R
ST GEORGE      CLOUDY    57  24  28 NW9       29.88F
HANKSVILLE     CLOUDY    52  19  28 NW18G26   29.81R
BLANDING       CLOUDY    44   9  23 NE15G21   29.85R

$$

REGIONAL REPORTS     COLORADO/ARIZONA

CITY           SKY/WX    TMP DP  RH WIND       PRES   REMARKS
CRAIG, CO      CLOUDY    40  26  57 VRB3      29.84R
GRAND JUNCTION SUNNY     49  20  31 NE12      29.77R
RIFLE, CO      CLOUDY    44  25  47 NW8       29.79F
MONTROSE, CO   CLOUDY    44  20  38 SE13      29.79S
CORTEZ, CO     SUNNY     40  20  44 N8        29.78R WCI  34
COLORADO CITY    N/A     52  18  25 NW18G28   29.90S
PAGE, AZ       CLOUDY    54  16  22 N17       29.80R
GRAND CANYON   MOSUNNY   43   8  23 NW12G20   29.83S
KINGMAN, AZ    SUNNY     61  10  13 N25G38    29.83R
FLAGSTAFF, AZ  PTSUNNY   43   5  20 NW14G23   29.79R

$$

REGIONAL REPORTS    NEVADA/IDAHO/WYOMING

CITY           SKY/WX    TMP DP  RH WIND       PRES   REMARKS
LAS VEGAS, NV  MOSUNNY   69  -4   5 N14G36    29.82S
ELY, NY        MOSUNNY   41  17  38 N20G25    30.00R
ELKO, NV       MOSUNNY   48  21  34 N12       30.06R
POCATELLO, ID  CLOUDY    49  28  44 N10G20    30.00R
BURLEY, ID     CLOUDY    50  25  37 W15G26    30.00R
FORT BRIDGER,  CLOUDY    33  31  90 NE10G16   29.96R WCI  25
EVANSTON, WY   LGT SNOW  30  27  88 NE8       29.93S FOG     WCI  22
ROCK SPRINGS,  CLOUDY    31  24  75 NE29G37   29.91R WCI  16
KEMMERER, WY   LGT SNOW  32  27  80 E13       29.95R WCI  22

$$




USA.gov is the U.S. government's official web portal to all federal, state and local government web resources and services.